Weather in Rodnikovy

Russia / Republic of Dagestan     42°09′00″N   47°56′57″E
temp.,
°C
wind,
m/s
gust,
m/s
humid.,
%
clouds,
%
prec.,
mm/h
press.,
hPa
HPBL,
m
26 june, sun
sun2600:00+21sw1174100 0.0 100716
03:00+20nw1177100 0.0 100830
06:00+23s2265100 0.0 1008175
09:00+27ne424985 0.0 1006934
12:00+28ne5346100 0.0 1005828
15:00+28nne334514 0.1 1004836
18:00+27n244635 0.1 1004405
21:00+23w2265100 0.4 100522
27 june, mon
mon2700:00+23wsw117398 0.6 100511
03:00+22wsw11750 0.6 100514
06:00+23wsw12720 0.0 1007149
09:00+29n44450 0.0 1006946
12:00+33n88360 0.0 10061427
15:00+33n1011370 0.0 10051547
18:00+29nnw711540 0.0 1005717
21:00+25nnw486635 0.0 1006258
28 june, tue
tue2800:00+23nnw386546 0.0 1005283
03:00+23nnw510665 0.0 1005370
06:00+25nnw612530 0.0 1006610
09:00+29n1112390 0.0 10061061
12:00+30n1315380 0.0 10071255
15:00+27n1013510 0.0 1008992
18:00+25nnw712520 0.0 1010720
21:00+22nw38560 0.0 1012245
29 june, wed
wed2900:00+21wsw34500 0.0 1012102
03:00+21wsw22550 0.0 101130
06:00+25w12460 0.0 1012126
09:00+29n44260 0.0 10121145
12:00+30nne54250 0.0 10121388
15:00+29ne54380 0.0 10121173
18:00+25nne44640 0.0 1013640
21:00+20nnw23919 0.0 1015132
30 june, thu
thu3000:00+19nne119244 0.0 101597
03:00+20n128471 0.0 1015293
06:00+20nne117867 0.0 1015402
09:00+24ne425625 0.0 10141064
12:00+26ne634333 0.0 10141264
15:00+25ne53394 0.1 10141291
18:00+22nne334414 0.0 1015676
21:00+19wnw125814 0.1 101678